Lamoni, IA

4:47 AM CST on December 09, 2016 (GMT -0600)
Lamoni Municipal

Weather History for KLWD - May, 2013

Change the Weather History Date:

Sunday, May 5, 2013

  Actual Average Record
Temperature  
Mean Temperature 51 °F 58 °F  
Max Temperature 58 °F 68 °F 89 °F (1966)
Min Temperature 43 °F 47 °F 35 °F (1989)
Degree Days  
Heating Degree Days 14 8  
Month to date heating degree days 105 42  
Since 1 July heating degree days 5985 5937  
Cooling Degree Days 0 1  
Month to date cooling degree days 0 1  
Year to date cooling degree days 12 8  
Moisture  
Dew Point 46 °F    
Average Humidity 89    
Maximum Humidity 100    
Minimum Humidity 77    
Precipitation  
Precipitation 0.00 in 0.17 in 0.63 in (1967)
Month to date precipitation 1.81 0.86  
Sea Level Pressure  
Sea Level Pressure 30.08 in    
Wind  
Wind Speed 10 mph (North)    
Max Wind Speed 17 mph    
Max Gust Speed 22 mph    
Visibility 5 miles    
Events Fog    
T = Trace of Precipitation, MM = Missing Value Source: NWS Daily Summary

Daily Weather History Graph

Daily Weather History Graph

Search for Another Location

Airport or City:

Trip Planner

Search our weather history database for the weather conditions in past years. The results will help you decide how hot, cold, wet, or windy it might be!

Date:

Astronomy

May. 05, 2013 Rise Set
Actual Time 6:09 AM CDT 8:16 PM CDT
Civil Twilight 5:39 AM CDT 8:46 PM CDT
Nautical Twilight 5:02 AM CDT 9:23 PM CDT
Astronomical Twilight 4:22 AM CDT 10:03 PM CDT
Moon 3:41 AM CDT (5/5) 4:15 PM CDT (5/5)
Length of Visible Light 15h 07m
Length of Day
14h 06m
Waning Crescent, 18% of the Moon is Illuminated
May 5
Waning Crescent
May 9
New
May 17
First Quarter
May 24
Full
May 31
Last Quarter

Hourly Weather History & Observations

Time (CDT) Temp. Windchill Dew Point Humidity Pressure Visibility Wind Dir Wind Speed Gust Speed Precip Events Conditions
12:53 AM 44.1 °F 39.0 °F 42.1 °F 93% 30.08 in 4.0 mi North 9.2 mph - 0.01 in   Mostly Cloudy
1:53 AM 44.1 °F 39.5 °F 42.1 °F 93% 30.06 in 6.0 mi North 8.1 mph - N/A   Overcast
2:53 AM 44.1 °F 39.0 °F 42.1 °F 93% 30.05 in 7.0 mi North 9.2 mph - N/A   Overcast
3:53 AM 44.1 °F 38.1 °F 42.1 °F 93% 30.04 in 6.0 mi NNW 11.5 mph - N/A   Overcast
4:53 AM 44.1 °F 39.0 °F 42.1 °F 93% 30.06 in 3.0 mi NNE 9.2 mph - N/A   Overcast
5:00 AM 44.6 °F 39.7 °F 42.8 °F 93% 30.05 in 2.5 mi NNE 9.2 mph - N/A   Overcast
5:15 AM 44.6 °F 40.2 °F 42.8 °F 93% 30.05 in 1.5 mi North 8.1 mph - N/A   Overcast
5:31 AM 44.6 °F 40.2 °F 42.8 °F 93% 30.05 in 0.5 mi North 8.1 mph - N/A Fog Fog
5:53 AM 43.0 °F 38.8 °F 42.1 °F 97% 30.06 in 0.2 mi North 6.9 mph - N/A Fog Fog
6:53 AM 43.0 °F 35.4 °F 42.1 °F 97% 30.07 in 0.2 mi North 16.1 mph 20.7 mph N/A Fog Fog
7:53 AM 44.1 °F 39.5 °F 43.0 °F 96% 30.10 in 0.2 mi NNE 8.1 mph - N/A Fog Fog
8:53 AM 44.1 °F 39.5 °F 43.0 °F 96% 30.12 in 0.2 mi North 8.1 mph - N/A Fog Fog
9:53 AM 45.0 °F 40.6 °F 44.1 °F 97% 30.12 in 0.5 mi NNW 8.1 mph - N/A Fog Fog
10:32 AM 46.4 °F 42.4 °F 44.6 °F 93% 30.10 in 1.0 mi North 8.1 mph - N/A   Mist
10:53 AM 46.0 °F 43.1 °F 45.0 °F 96% 30.12 in 1.2 mi North 5.8 mph - N/A   Overcast
11:22 AM 46.4 °F 42.9 °F 46.4 °F 100% 30.10 in 2.0 mi NNW 6.9 mph - N/A   Overcast
11:33 AM 48.2 °F - 46.4 °F 93% 30.11 in 4.0 mi North 5.8 mph - N/A   Overcast
11:53 AM 48.0 °F - 46.0 °F 93% 30.12 in 4.0 mi NNW 6.9 mph - N/A   Overcast
1:00 PM 51.8 °F - 48.2 °F 88% 30.09 in 10.0 mi NNW 5.8 mph - N/A   Overcast
1:53 PM 53.1 °F - 48.9 °F 86% 30.10 in 10.0 mi North 4.6 mph - N/A   Overcast
2:49 PM 57.2 °F - 51.8 °F 82% 30.07 in 10.0 mi NW 6.9 mph - N/A   Overcast
2:53 PM 57.0 °F - 51.1 °F 81% 30.08 in 10.0 mi NW 9.2 mph - N/A   Overcast
3:53 PM 57.0 °F - 51.1 °F 81% 30.06 in 10.0 mi NNW 12.7 mph - N/A   Overcast
4:53 PM 55.9 °F - 51.1 °F 84% 30.07 in 10.0 mi NW 11.5 mph - N/A   Overcast
5:53 PM 55.9 °F - 50.0 °F 80% 30.07 in 10.0 mi NNW 10.4 mph - N/A   Overcast
6:53 PM 55.0 °F - 48.9 °F 80% 30.06 in 10.0 mi NNW 12.7 mph - N/A   Overcast
7:53 PM 55.0 °F - 50.0 °F 83% 30.07 in 10.0 mi North 9.2 mph - N/A   Overcast
8:53 PM 53.1 °F - 48.9 °F 86% 30.06 in 10.0 mi North 12.7 mph - N/A   Overcast
9:02 PM 53.6 °F - 48.2 °F 82% 30.05 in 9.0 mi North 9.2 mph - N/A   Overcast
9:53 PM 52.0 °F - 48.9 °F 89% 30.08 in 7.0 mi NNW 12.7 mph - N/A   Overcast
10:31 PM 51.8 °F - 48.2 °F 88% 30.08 in 6.0 mi North 11.5 mph - N/A   Overcast
10:53 PM 51.1 °F - 48.0 °F 89% 30.09 in 6.0 mi North 9.2 mph - N/A   Overcast
11:53 PM 50.0 °F - 48.0 °F 93% 30.08 in 2.5 mi North 12.7 mph - N/A   Overcast